Temperature
13 13 13 12 12 12 12 12 12 13 13 12 12 12 12 12 12 12 12 12 11 11 11 11 11 10 10 10 10 10 10 10 9 9 9 9 9 10 10 10 9 9 9
13 12 12 12 12 12 12 12 12 12 12 13 13 12 12 12 12 12 12 12 11 11 11 11 11 11 10 10 10 10 9 9 9 9 9 9 9 10 10 10 10 9 9
13 12 12 12 12 12 13 13 13 12 13 12 12 12 11 11 11 12 12 12 12 11 11 11 11 11 11 10 10 10 10 10 9 9 9 10 11 10 9 10 9 9 9
12 12 12 12 12 13 13 13 13 12 13 12 12 12 12 12 12 12 12 12 12 12 11 11 11 11 11 11 10 10 10 9 9 9 9 9 9 9 9 9 9 9 9
12 12 12 12 13 13 13 13 13 12 13 12 12 12 12 12 12 12 12 12 12 12 12 11 11 11 11 11 10 10 10 10 9 9 9 9 9 9 9 9 9 9 9
12 12 11 11 12 12 12 13 12 12 12 13 13 12 12 12 12 12 12 12 12 12 12 12 11 11 11 11 11 10 10 10 9 9 9 9 9 9 9 9 9 9 9
11 11 11 11 11 12 12 12 12 12 12 12 12 13 13 12 12 12 12 12 12 12 13 12 12 12 11 11 11 11 10 10 10 10 9 9 9 9 9 8 8 8 8
11 10 11 11 11 12 12 12 13 13 12 13 13 13 13 12 12 12 12 12 12 13 13 13 12 12 12 11 11 10 10 10 10 10 9 9 9 9 9 8 8 8 8
10 10 10 10 11 11 12 12 13 13 13 13 13 13 13 12 13 13 12 12 12 12 13 13 12 12 12 11 11 11 10 10 10 10 9 9 9 9 9 8 8 7 7
9 9 9 10 10 11 11 12 12 13 13 13 13 13 13 13 13 13 12 13 13 12 12 13 12 12 12 11 11 11 10 10 10 10 9 9 9 9 9 8 8 8 7
8 8 9 9 10 10 11 11 12 12 12 13 13 13 13 13 13 13 13 13 13 12 12 13 12 12 12 11 11 11 10 10 10 10 10 9 9 9 9 9 8 8 7
7 8 8 8 9 9 10 10 11 11 12 12 13 13 13 13 13 13 13 13 12 12 12 12 12 12 12 11 11 11 11 10 10 10 10 9 9 9 9 8 8 8 7
7 7 7 8 8 8 9 9 10 11 12 12 12 12 13 12 12 13 13 13 13 12 12 12 12 12 12 12 11 11 11 10 10 10 10 9 9 9 9 8 8 8 7
6 6 7 7 7 7 8 9 9 10 11 11 12 12 12 13 13 13 13 13 13 12 12 12 12 12 12 11 11 11 11 10 10 10 9 9 9 9 9 8 8 7 7
6 6 6 6 6 7 7 8 8 9 10 10 11 11 12 12 12 12 12 12 12 12 12 12 12 11 11 11 11 11 11 10 10 10 9 9 9 9 8 8 8 7 7
5 5 5 5 5 6 7 7 8 8 9 10 10 11 11 11 12 12 12 12 12 12 12 12 11 11 11 11 11 11 10 10 10 10 9 9 9 9 8 8 7 7 7
5 4 4 5 5 5 6 6 7 8 8 9 10 10 11 11 11 12 12 12 12 12 12 11 11 11 11 11 11 10 10 10 10 9 9 9 9 8 8 8 7 7 6
4 4 4 4 4 5 5 6 7 7 8 9 9 10 10 11 11 11 11 11 11 11 11 11 11 11 11 11 11 10 10 9 9 9 9 9 8 8 8 7 7 7 6
3 3 3 3 4 4 5 6 6 7 7 8 9 9 9 10 10 11 11 11 11 11 11 11 11 11 11 11 10 10 9 9 9 9 8 8 8 8 7 7 7 6 6
3 3 3 3 3 4 5 5 6 6 7 7 8 8 9 9 10 10 10 11 11 11 10 10 10 10 10 10 10 9 9 9 8 8 8 8 7 7 7 6 6 6 5
3 2 2 3 3 4 4 5 5 5 6 7 7 8 8 9 9 10 10 10 10 10 10 10 10 10 10 10 10 9 9 9 8 8 8 8 7 7 6 6 6 5 5
2 2 2 2 3 3 4 4 4 5 6 6 7 7 8 8 9 9 9 9 9 9 9 9 9 9 9 9 9 9 9 9 8 8 7 7 7 6 6 6 5 5 4
2 2 2 2 2 3 3 4 4 5 5 6 6 7 7 7 8 8 8 8 8 8 8 8 9 9 9 9 9 8 8 8 8 7 7 7 6 6 5 5 5 4 4
1 1 1 1 2 2 3 3 4 4 5 5 6 6 6 7 7 7 8 8 8 8 8 8 8 8 8 8 8 8 7 7 7 7 6 6 6 5 5 4 4 3 3
0 1 1 1 1 2 2 3 3 4 4 5 5 5 6 6 6 6 7 7 7 8 8 8 8 8 8 8 8 8 7 7 6 6 6 5 5 4 4 4 3 3 3
0 0 0 1 1 1 2 2 3 3 3 4 4 5 5 5 5 6 6 6 6 7 7 7 8 8 8 7 7 7 7 7 6 6 5 5 5 4 4 4 3 3 2
Wind_Speed
15 13 14 15 16 16 18 19 18 17 15 14 14 14 14 13 12 12 15 16 16 17 14 10 11 11 10 10 10 8 8 6 5 4 4 5 6 6 5 5 5 5 5
13 12 13 14 15 17 18 19 20 19 18 15 15 13 13 11 12 11 14 17 17 17 14 14 11 12 10 11 11 10 7 6 6 5 4 3 5 5 5 5 5 6 5
14 12 12 14 15 18 19 18 20 19 19 18 13 11 10 9 10 13 13 16 17 17 16 15 13 12 12 11 12 12 11 8 7 7 5 3 3 2 4 5 6 6 5
12 11 11 13 15 17 17 19 19 19 19 18 17 18 16 15 15 14 13 15 17 17 17 16 15 14 12 12 12 12 11 10 8 7 6 5 3 3 2 4 5 6 6
10 10 10 12 14 15 15 17 18 19 19 20 21 20 18 16 13 14 16 16 16 17 17 17 16 15 13 14 13 13 13 10 9 7 6 6 5 6 5 4 4 4 5
8 8 8 8 10 11 13 15 17 18 19 20 22 22 22 19 17 17 16 15 13 14 18 17 16 16 14 14 14 14 15 12 11 9 8 6 5 6 6 6 6 6 4
6 7 7 7 8 10 12 14 17 18 18 20 22 24 23 22 21 19 18 16 14 14 18 18 17 16 15 15 14 14 14 14 13 12 9 9 8 6 6 6 6 6 5
5 6 6 7 8 9 12 14 16 17 18 20 21 22 22 18 17 19 17 17 15 16 18 19 18 18 17 15 15 13 14 13 13 13 12 9 8 7 7 6 6 6 5
6 6 6 6 7 8 10 12 15 17 17 19 20 20 21 20 19 19 18 16 15 15 18 19 19 18 17 17 15 13 14 13 13 13 13 10 8 7 7 7 6 6 6
8 7 6 6 7 7 7 10 13 15 17 17 18 16 19 20 20 18 19 19 18 17 17 18 19 18 18 17 16 13 13 14 13 11 12 11 9 8 7 7 7 7 7
10 8 7 6 6 6 6 7 10 13 13 15 16 17 18 18 19 19 20 19 18 18 18 18 18 18 18 17 16 15 14 15 14 12 12 12 11 8 7 6 6 7 7
10 9 8 7 6 5 5 6 7 10 12 13 14 16 17 18 18 19 19 19 19 18 18 18 18 18 18 17 17 16 15 15 15 14 13 13 10 10 8 7 7 7 7
10 9 8 7 6 6 5 6 6 8 9 10 13 14 16 17 18 19 18 18 18 18 18 18 18 18 17 17 17 16 16 15 15 14 13 12 11 11 9 8 7 6 5
10 10 9 8 8 7 6 6 6 6 7 9 11 13 15 16 17 18 17 18 18 17 17 17 17 17 16 16 16 15 15 14 14 13 12 12 12 11 10 8 8 6 5
10 10 9 9 9 8 7 6 6 5 5 8 9 11 12 14 14 15 16 16 17 17 16 16 15 15 14 14 15 15 14 14 12 11 11 10 10 10 8 7 7 7 5
10 10 10 9 9 8 8 7 6 6 5 6 8 9 10 11 12 13 13 14 15 15 16 16 15 15 12 14 17 15 13 12 12 11 10 9 10 9 9 8 7 7 6
10 10 9 9 9 8 8 8 7 6 5 6 7 7 8 9 11 11 12 13 14 15 15 15 15 15 15 16 18 17 13 12 11 11 10 7 7 9 8 7 7 5 4
9 9 9 9 9 9 8 8 7 6 6 6 6 6 7 8 9 11 12 12 12 13 14 14 15 14 13 17 18 18 14 11 11 11 10 9 9 8 9 7 6 4 3
9 9 9 9 8 8 8 8 7 7 6 6 6 6 7 8 9 10 12 11 11 12 12 13 13 14 13 17 18 17 11 9 10 9 9 10 9 11 12 9 7 5 3
9 9 9 9 8 8 7 7 7 7 7 6 6 6 7 8 9 10 10 10 11 11 11 11 12 13 13 16 19 18 10 9 8 7 8 10 10 14 14 10 8 7 5
10 9 9 8 8 8 7 7 7 8 8 7 7 6 7 8 9 9 9 9 9 10 10 10 10 11 12 15 19 18 11 10 9 8 7 7 13 14 13 10 7 8 7
10 9 9 9 8 8 7 8 8 8 7 7 7 7 7 6 6 8 8 9 10 11 10 9 9 8 9 12 15 18 14 12 10 8 7 8 14 14 13 9 9 11 8
10 9 9 9 9 8 7 8 9 8 7 7 7 6 6 6 7 8 8 8 9 9 9 9 8 8 7 9 13 16 15 13 8 7 10 12 15 13 10 11 12 10 5
9 9 9 9 9 9 8 8 8 8 7 7 6 5 5 6 6 6 7 7 8 9 9 9 9 8 8 8 9 9 10 11 9 9 12 14 13 10 10 10 7 5 4
9 8 9 10 10 10 10 9 7 6 7 6 6 5 4 5 6 5 6 7 7 8 9 9 9 10 9 9 12 11 9 9 10 11 8 7 7 6 6 5 5 4 4
9 9 9 10 10 10 10 9 7 6 6 5 4 4 4 4 4 4 3 3 5 6 7 7 8 7 8 13 14 14 14 16 17 11 9 8 7 7 7 6 5 4 4
Wind_Direction
242 233 225 217 212 207 203 199 198 197 191 188 184 184 187 187 189 190 190 190 191 191 193 191 190 191 194 194 194 192 192 195 193 202 218 223 228 233 229 232 239 238 240
239 231 222 214 210 208 205 202 200 198 195 194 190 191 189 190 191 190 194 195 195 194 195 195 193 194 196 196 197 193 194 190 193 206 216 229 217 217 225 230 237 241 234
235 229 221 216 212 210 207 203 201 201 198 196 189 185 184 185 191 195 196 198 197 197 197 197 196 196 198 199 199 197 197 195 196 210 217 226 231 218 204 218 228 232 235
236 231 223 219 217 213 208 204 201 202 201 196 192 188 191 195 198 195 196 197 198 199 200 200 200 199 201 202 202 202 202 201 200 204 225 243 262 245 232 210 223 233 244
239 236 227 224 223 217 208 204 202 202 202 199 195 194 201 204 199 195 196 197 198 201 202 201 202 202 204 206 204 202 204 205 208 203 202 218 231 243 251 254 248 244 242
239 237 233 230 230 219 210 205 204 204 202 202 200 199 202 202 198 196 196 197 198 201 202 202 204 206 206 206 206 205 206 208 211 210 208 208 214 219 227 247 261 267 260
251 242 240 231 233 222 213 208 206 206 205 203 204 203 204 204 202 199 199 197 199 200 202 201 205 206 207 206 205 206 208 210 211 213 215 218 226 226 228 244 260 268 269
285 265 251 238 234 227 216 211 209 209 207 206 207 206 205 205 206 204 202 201 202 203 202 202 205 207 206 205 204 207 210 211 213 217 218 219 224 224 225 234 250 265 265
318 296 276 261 251 240 225 217 212 211 209 209 208 209 206 206 206 205 204 205 206 204 202 201 204 206 205 205 204 209 209 210 213 216 217 219 222 221 225 228 231 244 265
327 320 305 286 269 253 242 228 220 215 213 210 209 210 208 208 207 205 205 206 205 203 202 201 203 204 204 204 204 208 210 209 211 211 214 217 219 218 219 222 226 232 246
328 322 316 305 288 271 249 236 230 222 217 214 210 210 210 209 208 207 208 207 206 203 203 202 202 202 203 202 204 206 206 209 210 208 213 216 216 215 215 217 221 226 231
330 325 318 317 310 294 267 248 239 232 225 217 213 212 210 208 208 209 209 207 207 205 203 202 202 202 202 201 203 205 206 208 210 209 211 215 212 215 215 214 219 223 225
334 333 329 324 317 307 295 272 252 244 234 224 218 215 210 208 209 210 209 206 205 204 202 202 202 201 201 201 203 204 206 208 211 209 209 212 210 214 215 214 217 220 220
332 333 331 328 323 314 302 289 280 264 246 230 221 219 214 211 210 209 207 205 202 201 201 202 203 201 200 200 200 201 204 206 209 209 209 209 209 213 213 212 214 210 208
327 331 328 326 325 324 313 303 296 288 267 237 226 224 219 213 211 210 207 204 202 200 198 199 201 200 198 199 197 198 200 201 203 205 207 207 205 206 204 200 201 196 199
320 323 323 320 321 321 319 309 300 294 279 251 233 228 221 213 209 208 206 202 201 198 195 196 198 198 199 190 188 191 194 196 197 198 201 201 198 194 190 186 185 186 194
315 319 319 317 314 314 313 307 298 290 275 259 243 234 223 214 210 206 203 200 199 195 196 196 196 199 197 183 182 183 189 191 194 195 194 190 185 183 185 178 170 175 180
310 312 314 314 312 308 308 305 298 287 274 261 252 240 225 216 210 205 203 201 198 196 195 196 196 197 194 180 180 178 188 191 193 193 190 185 183 181 173 165 163 169 177
305 307 310 310 309 308 307 302 294 286 276 261 255 244 228 217 209 205 204 201 196 195 195 194 193 194 191 178 176 173 188 189 189 187 184 181 182 170 161 160 159 153 138
304 306 308 309 309 311 311 300 290 283 279 275 265 250 230 218 211 207 204 199 196 194 190 191 191 192 190 178 174 173 182 181 179 178 178 179 177 167 164 171 168 168 166
304 307 305 305 307 310 312 302 291 283 283 284 276 255 232 222 214 207 202 196 192 189 187 184 187 189 186 176 174 175 181 178 175 175 177 177 170 167 167 170 174 168 157
304 307 305 305 308 308 308 304 296 293 289 282 273 252 233 221 212 202 198 192 186 185 184 179 179 184 180 177 177 177 177 170 173 175 173 168 162 162 161 163 154 146 143
299 302 302 302 305 307 304 300 301 302 294 282 269 253 235 217 206 199 193 187 185 184 181 180 180 180 177 173 169 171 170 164 163 161 157 153 152 151 154 153 149 148 151
296 299 299 300 303 306 302 297 300 301 290 278 266 247 226 212 203 196 191 188 188 184 180 181 179 175 174 171 166 164 160 152 146 141 143 141 140 141 143 147 151 158 161
290 292 291 294 298 302 300 299 301 299 289 278 263 244 223 210 204 197 195 195 198 191 185 185 179 176 182 176 163 162 163 161 152 142 138 142 145 151 152 150 148 150 151
284 287 286 288 292 296 296 297 299 293 286 278 267 243 218 206 198 188 177 166 179 167 171 173 172 175 166 158 159 156 154 150 149 146 155 160 162 165 164 164 160 159 163
Height
1426 1428 1430 1433 1435 1438 1442 1445 1449 1453 1458 1462 1465 1470 1475 1480 1485 1489 1493 1497 1500 1504 1507 1510 1513 1515 1518 1520 1523 1525 1527 1528 1530 1531 1532 1532 1532 1532 1532 1532 1532 1531 1531
1421 1423 1424 1426 1429 1432 1435 1439 1444 1448 1452 1456 1460 1466 1471 1476 1481 1485 1489 1492 1496 1500 1503 1506 1509 1512 1515 1517 1520 1522 1524 1525 1527 1529 1531 1532 1532 1530 1529 1529 1529 1529 1528
1416 1418 1419 1421 1423 1426 1429 1433 1437 1441 1446 1451 1456 1462 1467 1472 1476 1479 1483 1487 1491 1495 1499 1502 1505 1508 1511 1513 1516 1518 1520 1522 1524 1526 1528 1529 1529 1529 1527 1526 1526 1526 1526
1412 1413 1414 1416 1418 1420 1424 1428 1432 1436 1441 1445 1450 1454 1459 1463 1467 1473 1478 1482 1487 1490 1494 1498 1501 1504 1507 1509 1512 1514 1517 1519 1520 1522 1523 1525 1526 1527 1526 1525 1524 1523 1523
1407 1408 1410 1411 1413 1416 1419 1422 1427 1430 1435 1439 1444 1449 1454 1459 1465 1469 1473 1477 1481 1485 1489 1493 1496 1499 1502 1505 1508 1510 1512 1514 1516 1518 1519 1521 1522 1522 1523 1523 1522 1521 1520
1404 1405 1406 1408 1410 1412 1414 1417 1421 1424 1428 1433 1438 1442 1448 1454 1459 1463 1467 1471 1475 1479 1483 1487 1491 1494 1497 1500 1503 1505 1508 1510 1512 1514 1515 1517 1518 1518 1519 1519 1519 1518 1517
1401 1401 1402 1403 1405 1407 1409 1412 1415 1418 1422 1427 1431 1436 1442 1447 1452 1456 1461 1465 1469 1472 1476 1480 1484 1488 1491 1495 1498 1500 1503 1505 1507 1509 1511 1512 1514 1515 1515 1516 1515 1515 1514
1398 1399 1399 1400 1401 1402 1404 1406 1409 1413 1417 1420 1425 1430 1436 1441 1446 1451 1455 1459 1462 1466 1471 1475 1478 1482 1486 1489 1492 1495 1498 1500 1502 1504 1506 1508 1509 1510 1511 1511 1512 1511 1510
1397 1397 1397 1397 1397 1398 1400 1401 1404 1407 1410 1414 1419 1423 1429 1434 1438 1444 1449 1453 1457 1461 1465 1469 1473 1476 1480 1483 1486 1489 1492 1495 1497 1499 1501 1503 1504 1505 1506 1507 1508 1508 1506
1396 1395 1395 1394 1394 1395 1396 1397 1399 1402 1405 1409 1413 1417 1422 1427 1432 1437 1442 1446 1450 1455 1459 1462 1466 1470 1474 1477 1480 1483 1486 1489 1491 1494 1496 1497 1499 1500 1501 1502 1503 1503 1503
1395 1393 1393 1392 1392 1392 1392 1393 1395 1398 1401 1404 1407 1411 1416 1420 1425 1430 1435 1439 1444 1448 1452 1456 1460 1464 1467 1471 1474 1477 1480 1483 1485 1488 1490 1492 1494 1495 1496 1497 1497 1497 1497
1394 1392 1391 1389 1389 1388 1389 1389 1391 1393 1395 1398 1402 1405 1410 1414 1418 1423 1428 1433 1437 1441 1445 1449 1453 1457 1461 1464 1468 1471 1474 1477 1479 1482 1484 1486 1488 1489 1491 1491 1492 1492 1492
1393 1391 1389 1387 1386 1385 1386 1386 1387 1388 1390 1393 1396 1400 1404 1408 1412 1416 1421 1426 1430 1434 1438 1443 1446 1450 1454 1458 1461 1465 1468 1470 1473 1476 1478 1480 1482 1484 1485 1486 1487 1487 1487
1392 1389 1388 1386 1384 1383 1383 1383 1383 1384 1386 1388 1390 1393 1397 1401 1405 1409 1414 1419 1423 1427 1431 1435 1439 1443 1447 1451 1455 1458 1461 1464 1467 1470 1472 1475 1476 1478 1479 1480 1481 1481 1481
1390 1388 1386 1384 1382 1381 1380 1380 1380 1380 1381 1383 1385 1387 1391 1395 1399 1403 1407 1412 1416 1420 1424 1429 1433 1437 1441 1444 1448 1452 1455 1458 1461 1464 1466 1468 1471 1472 1474 1475 1476 1476 1476
1388 1386 1384 1382 1380 1378 1377 1376 1376 1376 1377 1378 1380 1382 1386 1389 1393 1397 1401 1405 1409 1413 1418 1422 1426 1430 1433 1438 1442 1446 1449 1453 1455 1458 1460 1463 1465 1467 1468 1470 1471 1471 1471
1386 1384 1382 1380 1378 1376 1375 1374 1374 1373 1374 1374 1376 1378 1380 1383 1386 1391 1395 1399 1402 1406 1410 1415 1419 1423 1427 1431 1436 1440 1444 1447 1449 1452 1454 1457 1459 1461 1463 1464 1465 1466 1466
1384 1382 1380 1377 1376 1374 1372 1371 1370 1370 1370 1370 1372 1373 1375 1378 1381 1385 1388 1392 1396 1400 1404 1408 1413 1417 1421 1425 1430 1434 1438 1441 1444 1446 1449 1451 1453 1455 1457 1459 1460 1461 1461
1381 1379 1377 1375 1373 1371 1369 1368 1367 1366 1366 1366 1367 1368 1370 1373 1376 1379 1383 1387 1391 1394 1398 1403 1407 1411 1415 1420 1424 1428 1432 1435 1438 1441 1444 1446 1448 1450 1453 1454 1455 1456 1457
1378 1376 1374 1372 1370 1368 1366 1364 1363 1362 1362 1362 1363 1365 1366 1369 1371 1374 1377 1381 1385 1389 1393 1397 1401 1405 1409 1414 1418 1422 1426 1429 1433 1436 1438 1441 1443 1446 1448 1450 1451 1452 1452
1374 1372 1370 1368 1366 1364 1363 1361 1360 1359 1359 1359 1359 1361 1362 1364 1367 1370 1373 1376 1380 1384 1388 1392 1396 1400 1404 1408 1412 1416 1420 1423 1427 1430 1433 1436 1439 1441 1443 1446 1447 1448 1449
1370 1368 1366 1364 1363 1361 1359 1357 1356 1355 1355 1355 1355 1357 1358 1360 1363 1365 1368 1372 1375 1379 1383 1387 1391 1395 1399 1403 1407 1411 1415 1419 1422 1425 1428 1431 1434 1437 1440 1442 1443 1444 1446
1367 1365 1363 1361 1359 1358 1356 1354 1352 1351 1351 1351 1351 1352 1354 1356 1358 1361 1363 1366 1370 1373 1377 1381 1385 1389 1394 1398 1402 1407 1411 1415 1418 1421 1425 1428 1431 1433 1436 1438 1439 1441 1442
1363 1361 1359 1357 1355 1354 1353 1351 1349 1348 1347 1347 1347 1349 1350 1351 1354 1356 1359 1361 1364 1368 1372 1376 1380 1384 1388 1392 1396 1401 1406 1410 1414 1417 1421 1424 1427 1430 1432 1434 1436 1437 1438
1358 1357 1355 1353 1351 1350 1348 1347 1346 1344 1344 1343 1344 1345 1346 1348 1349 1352 1354 1357 1360 1363 1367 1371 1374 1378 1382 1387 1391 1395 1400 1404 1408 1412 1416 1420 1423 1425 1428 1430 1431 1433 1434
1353 1352 1350 1349 1347 1345 1344 1343 1342 1341 1340 1340 1340 1342 1343 1344 1346 1348 1351 1354 1357 1361 1364 1368 1371 1375 1379 1384 1388 1393 1397 1401 1405 1409 1412 1415 1418 1421 1423 1426 1427 1429 1431